This is the latest recevied weather packets stored in our database for station/object AG1T-20. If no packets are shown the sender has not sent any weather packets the latest 10 day(s).
| Time | Temp. | Humidity | Pressure | Rain* | Wind** | Luminosity | Snow |
|---|---|---|---|---|---|---|---|
| 1787534405 | 26.67° C | 35% | 1019.5 hPa | 0 mm | - | 22 W/m² | - |
| 1787533805 | 28.33° C | 37% | 1019.5 hPa | 0 mm | - | 26 W/m² | - |
| 1787533205 | 29.44° C | 36% | 1019.5 hPa | 0 mm | - | 24 W/m² | - |
| 1787532605 | 31.11° C | 30% | 1019.6 hPa | 0 mm | - | 24 W/m² | - |
| 1787532004 | 32.78° C | 26% | 1019.6 hPa | 0 mm | - | 41 W/m² | - |
| 1787531405 | 32.22° C | 27% | 1019.6 hPa | 0 mm | - | 68 W/m² | - |
| 1787530805 | 33.33° C | 26% | 1019.6 hPa | 0 mm | - | 93 W/m² | - |
| 1787530205 | 32.78° C | 25% | 1019.6 hPa | 0 mm | - | 106 W/m² | - |
| 1787529604 | 32.78° C | 27% | 1019.6 hPa | 0 mm | - | 114 W/m² | - |
| 1787529005 | 32.22° C | 26% | 1019.4 hPa | 0 mm | - | 64 W/m² | - |
| 1787528405 | 32.78° C | 25% | 1019.4 hPa | 0 mm | - | 85 W/m² | - |
| 1787527805 | 33.33° C | 25% | 1019.4 hPa | 0 mm | - | 153 W/m² | - |
| 1787527204 | 33.33° C | 25% | 1019.4 hPa | 0 mm | - | 193 W/m² | - |
| 1787526604 | 33.33° C | 26% | 1019.4 hPa | 0 mm | - | 220 W/m² | - |
| 1787526004 | 33.33° C | 26% | 1019.4 hPa | 0 mm | - | 249 W/m² | - |
| 1787525404 | 33.33° C | 24% | 1019.6 hPa | 0 mm | - | 278 W/m² | - |
| 1787524804 | 33.33° C | 26% | 1019.6 hPa | 0 mm | - | 261 W/m² | - |
| 1787524205 | 32.78° C | 25% | 1019.6 hPa | 0 mm | - | 337 W/m² | - |
| 1787523604 | 32.78° C | 25% | 1019.6 hPa | 0 mm | - | 367 W/m² | - |
| 1787523005 | 33.89° C | 25% | 1019.6 hPa | 0 mm | - | 349 W/m² | - |
| 1787522404 | 33.33° C | 26% | 1019.6 hPa | 0 mm | - | 428 W/m² | - |
| 1787521804 | 33.33° C | 26% | 1020.8 hPa | 0 mm | - | 459 W/m² | - |
| 1787521205 | 33.33° C | 26% | 1020.8 hPa | 0 mm | - | 489 W/m² | - |
| 1787520604 | 32.22° C | 26% | 1020.8 hPa | 0 mm | - | 518 W/m² | - |
| 1787520004 | 32.22° C | 26% | 1020.8 hPa | 0 mm | - | 546 W/m² | - |
* Rain latest hour (hover to see other rain measurements)
** Current wind speed in m/s (hover to see current wind gust speed)